Regional Weather Roundup
Issued by NWS

Home | Current Version | Previous Version | Text Only | Print | Product List | Glossary On
Versions: 1 2 3 4 5 6 7 8 9 10 11 12 13 14 15 16 17 18 19 20 21 22 23 24 25 26 27 28 29 30 31 32 33 34 35 36 37 38 39 40 41 42 43 44 45 46 47 48 49 50
639
ASUS44 KFWD 171015
RWRTX
NORTH TEXAS HOURLY WEATHER ROUNDUP
NATIONAL WEATHER SERVICE FORT WORTH TX
400 AM CST SUN DEC 17 2017

NOTE: "FAIR" INDICATES FEW OR NO CLOUDS BELOW 12,000 FEET WITH NO
SIGNIFICANT WEATHER AND/OR OBSTRUCTIONS TO VISIBILITY.

TXZ118-119-171100-
DALLAS/FORT WORTH METROPLEX

CITY           SKY/WX    TMP DP  RH WIND       PRES   REMARKS
DFW AIRPORT    CLOUDY    46  43  89 S7        30.02F
DALLAS LOVE    CLOUDY    45  43  93 S7        30.03F
FTW MEACHAM    MOCLDY    45  44  97 S6        30.03S
DAL-EXECUTIVE  CLOUDY    43  43 100 SE6       30.02F FOG     WCI  39
FTW-ALLIANCE   CLOUDY    43  42  97 S3          N/A
FTW-NAS-JRB    CLOUDY    45  42  89 S9        30.03F
FTW-SPINKS     CLOUDY    43  42  95 S3        30.04R FOG
ARLINGTON      CLOUDY    42  42 100 S5        30.03S FOG     WCI  39
GRAND PRAIRIE  CLOUDY    44  44 100 S5        30.05R
ADDISON        CLOUDY    44  43  95 SE6       30.04F
MESQUITE       CLOUDY    42  41  97 SE3       30.04F
LANCASTER      FOG       42  41  97 SE3       30.04F VSB 1/4
$$

TXZ091>094-102>105-117-120-121-131>134-171100-
NORTH CENTRAL TEXAS

CITY           SKY/WX    TMP DP  RH WIND       PRES   REMARKS
SHRMAN/DENISON CLOUDY    44  42  96 S7        30.05S WCI  39
GAINESVILLE    CLOUDY    43  42  95 S6        30.04F WCI  39
BOWIE          CLOUDY    43  42  97 SE6       30.00S FOG     WCI  39
BRIDGEPORT     CLOUDY    44  44 100 CALM      30.03S
DECATUR        CLOUDY    43  42  95 S7        30.00S FOG     WCI  39
DENTON         CLOUDY    44  44 100 SE3       30.02F
MCKINNEY       CLOUDY    44  44 100 S6        30.03S
BONHAM         CLOUDY    42  42  98 S5        30.06R FOG     WCI  39
GREENVILLE     CLOUDY    46  46 100 CALM      30.04F
ROCKWALL       CLOUDY    43  43 100 E5        30.03F
TERRELL        CLOUDY    45  42  89 E5        30.04F
WAXAHACHIE     FOG       42  42 100 SE3       30.04F VSB 1
CLEBURNE       FOG       43  43 100 S7        30.04S VSB 3/4 WCI  39
GRANBURY       CLOUDY    45  43  92 E5        30.03S
$$

TXZ083>090-098>101-113>116-127>130-139>142-154-155-171100-
WESTERN NORTH TEXAS

CITY           SKY/WX    TMP DP  RH WIND       PRES   REMARKS
WICHITA FALLS  CLOUDY    45  41  86 S10       29.99R WCI  40
WF-KICKAPOO    CLOUDY    45  42  89 S10       30.01R WCI  39
VERNON         CLOUDY    47  38  73 SE8       29.97R
ABILENE        PTCLDY    42  40  92 S12       29.97S WCI  36
ABILENE-DYESS  CLOUDY    42  40  93 S12       29.96R WCI  36
GRAHAM           N/A     45  32  61 S5        29.99R
BRECKENRIDGE   CLOUDY    48  42  82 SW7       29.99R
CISCO          CLOUDY    45  43  93 SW14G21   29.99R WCI  38
EASTLAND       CLOUDY    45  42  91 SW8       29.99S
RANGER         CLOUDY    43  43 100 SW6       29.98F FOG     WCI  39
MINERAL WELLS  CLOUDY    43  41  93 S5        30.00S
STEPHENVILLE   CLOUDY    42  40  93 CALM      30.02S
COMANCHE       CLOUDY    45  45 100 SW7       30.00S
COLEMAN        CLOUDY    44  40  88 W6        29.99F
$$

TXZ143>147-156>162-174-175-171100-
CENTRAL TEXAS

CITY           SKY/WX    TMP DP  RH WIND       PRES   REMARKS
WACO           CLOUDY    43  43 100 CALM      30.04S FOG
WACO-MCGREGOR  CLOUDY    42  41  96 NW9       30.05R FOG     WCI  37
HILLSBORO      FOG       41  41 100 CALM      30.04R VSB 1/4
CORSICANA      CLOUDY    44  44 100 SE3       30.06F
MEXIA          FOG       41  40  96 CALM      30.03S VSB<1/4
HEARNE         FOG       40  40 100 CALM      30.05F VSB 1/4
CAMERON        FOG       43  43  98 CALM      30.05R VSB 1/4
TEMPLE         CLOUDY    43  42  97 CALM      30.04S
KILLEEN        CLOUDY    43  42  99 CALM      30.00F
KILLEEN-SKYLRK CLOUDY    43  43 100 S3        30.03S
FORT HOOD      CLOUDY    42  42 100 CALM      29.98S
GATESVILLE     CLOUDY    43  43 100 CALM      30.04S FOG
HAMILTON       CLOUDY    43  43 100 S8        30.03R FOG     WCI  38
LAMPASAS       CLOUDY    42  42  99 CALM      30.00F FOG
$$

TXZ095>097-106>112-122>126-135>138-148>153-164>167-171100-
EAST TEXAS

CITY           SKY/WX    TMP DP  RH WIND       PRES   REMARKS
PARIS          CLOUDY    43  42  97 SE3       30.06R FOG
SULPHUR SPRNGS CLOUDY    45  44  99 CALM      30.08R
MOUNT PLEASANT CLOUDY    44  43  97 CALM      30.08S
GILMER           N/A     43  43  99 E3        30.05R
MINEOLA        CLOUDY    45  43  93 CALM      30.05S
TYLER          CLOUDY    44  44 100 CALM      30.04R FOG
LONGVIEW       MOCLDY    43  43 100 SE3       30.04S
MARSHALL       CLOUDY    45  43  93 CALM      30.07S
ATHENS         CLOUDY    41  41 100 CALM      30.03S
PALESTINE      FOG       40  40 100 CALM      30.05F VSB 3/4
JACKSONVILLE   CLEAR     42  42 100 CALM      30.05F FOG
HENDERSON      FOG       40  40  98 CALM      30.06S VSB 1/2
CENTER         CLOUDY    43  42  95 SE3       30.07S
NACOGDOCHES    CLOUDY    43  42  97 E5        30.05F
LUFKIN         CLOUDY    45  44  97 VRB5      30.05R
$$

SUPPLEMENTAL OBSERVATIONS (NWS FORT WORTH AREA)

CITY           SKY/WX    TMP DP  RH WIND       PRES   REMARKS
DENISON DAM      N/A     45  41  87 S3          N/A
CADDO GRASSLND   N/A     43  41  93 S5          N/A
PAT MAYSE LAKE   N/A     43  41  93 SE6         N/A  WCI  39
GREENVILLE       N/A     45  43  93 CALM        N/A
CEDAR HILL       N/A     43  39  87 S2          N/A
LBJ GRASSLAND    N/A     43  39  87 SE6         N/A  WCI  39
POSSUM KINGDOM   N/A     45  39  81 S7          N/A
GRANBURY         N/A     45  41  87 SE7         N/A
COMANCHE         N/A     45  43  93 SW8         N/A
MCGREGOR         N/A     41  39  93 CALM        N/A
TEMPLE           N/A     43  41  93 E2          N/A
LAKE LIMESTONE   N/A     39  37  93 NE1         N/A
ATHENS           N/A     45  43  93 CALM        N/A
$$

SUPPLEMENTAL OBSERVATIONS (NWS NORMAN AREA)

CITY           SKY/WX    TMP DP  RH WIND       PRES   REMARKS
GOODLETT         N/A     43  38  82 S9        29.94S WCI  38
ODELL            N/A     45  41  86 SE12      29.97F WCI  39
CROWELL          N/A     44  40  86 S12       29.97R WCI  38
KNOX CITY        N/A     40  37  89 S9        29.98R WCI  33
SEYMOUR          N/A     46  40  80 S13       29.99R WCI  40
MILLERS CREEK    N/A     46  41  81 S12         N/A
$$

SUPPLEMENTAL OBSERVATIONS (NWS SAN ANGELO AREA)

CITY           SKY/WX    TMP DP  RH WIND       PRES   REMARKS
WEINERT          N/A     43  39  84 S14       29.99R WCI  36
HASKELL          N/A     42  38  86 S9        29.98R WCI  37
THROCKMORTON     N/A     45  41  85 S8        30.00S
STAMFORD         N/A     42  39  90 S12       29.98S WCI  36
CLYDE            N/A     41  40  95 S12       29.97F WCI  34
HAMBY            N/A     43  39  87 S8G18       N/A  WCI  38
IVIE RESERVOIR   N/A     43  39  87 W2          N/A
COLORADO BEND    N/A     45  43  93 SW3         N/A
$$

SUPPLEMENTAL OBSERVATIONS (NWS SHREVEPORT AREA)

CITY           SKY/WX    TMP DP  RH WIND       PRES   REMARKS
CLARKSVILLE      N/A     43  41  93 CALM        N/A
TEXARKANA        N/A     43  41  93 E1          N/A
LINDEN           N/A     45  43  93 E3          N/A
CADDO LAKE       N/A     45  43  93 CALM        N/A
GILMER           N/A     45  43  93 SE2         N/A
HENDERSON        N/A     43  41  93 E1          N/A
LUFKIN           N/A     45  43  93 MISG        N/A
N SABINE NF      N/A     45  43  93 MISG        N/A
S SABINE NF      N/A     46  45  93 NE1         N/A
$$

SUPPLEMENTAL OBSERVATIONS ARE A COLLECTION OF AUTOMATED INSTRUMENTS
THAT ARE MAINTAINED BY A VARIETY OF FEDERAL AND STATE AGENCIES.
CERTAIN ELEMENTS...SUCH AS HUMIDITY VALUES AND SUSTAINED WIND
SPEEDS...MAY BE APPROXIMATED.





USA.gov is the U.S. government's official web portal to all federal, state and local government web resources and services.